Date,TemperatureHighF,TemperatureAvgF,TemperatureLowF,DewpointHighF,DewpointAvgF,DewpointLowF,HumidityHigh,HumidityAvg,HumidityLow,PressureMaxIn,PressureMinIn,WindSpeedMaxMPH,WindSpeedAvgMPH,GustSpeedMaxMPH,PrecipitationSumIn
2013-8-1,103.8,88.4,74.3,53.8,40.7,18.7,46,23,5,29.68,29.55,20,9,0,0.00
2013-8-2,105.6,90.4,77.7,51.5,42.5,24.4,36,22,6,29.67,29.54,16,8,0,0.00
2013-8-3,108.1,91.0,78.6,53.9,43.1,18.3,37,23,5,29.71,29.58,14,6,0,0.00
2013-8-4,109.2,92.4,79.5,55.7,43.5,22.3,42,22,5,29.72,29.57,12,7,0,0.00
2013-8-5,107.6,92.3,82.8,51.3,35.4,17.3,22,14,7,29.71,29.58,14,6,0,0.00
2013-8-6,108.9,91.2,78.4,52.9,38.3,10.3,36,18,3,29.74,29.61,13,6,0,0.00
2013-8-7,106.2,90.6,79.3,45.3,25.8,-13.6,26,12,1,29.75,29.62,15,7,0,0.01
2013-8-8,103.3,90.4,76.5,48.3,27.6,5.1,37,13,3,29.73,29.60,16,7,0,0.01
2013-8-9,102.6,89.7,79.0,39.9,25.1,5.5,23,11,3,29.70,29.61,17,8,0,0.00
2013-8-10,102.0,88.1,75.4,48.4,37.4,26.2,34,19,8,29.76,29.65,14,8,0,0.00
2013-8-11,105.4,90.1,76.5,50.9,41.0,20.4,36,22,5,29.75,29.62,12,7,0,0.00
2013-8-12,109.2,92.2,79.2,52.2,43.0,28.9,35,21,7,29.73,29.60,17,8,0,0.00
2013-8-13,112.8,93.1,81.0,55.5,45.7,25.8,35,22,5,29.78,29.63,12,4,0,0.00
2013-8-14,112.6,95.1,79.7,59.4,43.4,27.4,35,19,6,29.77,29.59,6,3,0,0.00
2013-8-15,115.9,96.2,85.1,53.9,44.4,36.1,27,18,10,29.76,29.61,12,4,0,0.00
2013-8-16,113.2,99.0,87.8,51.3,44.6,39.5,24,17,10,29.72,29.60,14,7,0,0.00
2013-8-17,113.9,98.5,84.6,55.7,49.4,42.5,34,20,10,29.74,29.54,12,5,0,0.00
2013-8-18,111.4,96.9,83.7,61.3,53.8,48.2,37,24,16,29.71,29.57,12,4,0,0.00
2013-8-19,109.0,95.9,86.2,60.4,56.1,48.0,36,27,17,29.74,29.60,9,3,0,0.00
2013-8-20,112.5,96.6,83.5,58.5,46.6,28.3,35,21,7,29.69,29.54,14,6,0,0.00
2013-8-21,112.8,97.9,80.6,52.2,42.3,32.9,37,16,9,29.68,29.55,11,4,0,0.00
2013-8-22,110.5,98.4,87.1,66.1,52.0,33.0,41,23,10,29.70,29.51,7,3,0,0.00
2013-8-23,107.1,94.7,84.6,65.3,53.4,36.5,39,26,14,29.65,29.49,8,3,0,0.00
2013-8-24,97.0,86.9,77.7,73.6,58.7,33.4,68,42,14,29.75,29.55,10,2,0,0.13
2013-8-25,96.1,81.7,73.9,70.7,66.3,62.5,75,60,42,29.83,29.71,9,2,0,0.00
2013-8-26,88.0,80.3,77.0,72.9,68.8,65.4,79,68,53,29.84,29.69,4,1,0,0.09
2013-8-27,109.4,89.5,73.9,69.1,65.5,59.4,78,49,24,29.72,29.53,10,2,0,0.00
2013-8-28,109.0,95.6,83.7,65.0,59.7,54.6,43,32,18,29.71,29.55,10,4,0,0.00
2013-8-29,101.1,90.3,83.7,73.4,71.2,59.7,65,54,35,29.87,29.72,5,2,0,0.00
2013-8-30,101.7,88.9,82.0,75.8,71.8,68.1,77,58,38,29.89,29.73,7,2,0,0.00
2013-8-31,102.7,92.4,84.9,71.3,68.1,65.0,58,46,33,29.79,29.63,12,4,0,0.00